AirNav   ATP
 
 694 users online  

WI54 Northwood Airstrip
Wonewoc, Wisconsin, USA

GOING TO WONEWOC?


FAA INFORMATION EFFECTIVE 24 MAY 2018

Location

FAA Identifier: WI54
Lat/Long: 43-33-47.0000N / 090-17-06.0000W
43-33.783333N / 090-17.100000W
43.5630556 / -90.2850000
(estimated)
Elevation: 1275 ft. / 389 m
From city: 6 miles SSW of WONEWOC, WI
Time zone: UTC -5 (UTC -6 during Standard Time)
Zip code: 53924

Airport Operations

Airport use: Private use. Permission required prior to landing
Activation date: 06/2017
Control tower: no
ARTCC: CHICAGO CENTER
FSS: GREEN BAY FLIGHT SERVICE STATION
Attendance: 
Segmented circle: no

Airport Communications

WX AWOS-3PT at C35 (13 nm E): 118.95 (608-768-0023)
WX AWOS-3 at 82C (18 nm N): 123.925 (608-562-6153)

Nearby radio navigation aids

VOR radial/distance  VOR name  Freq  Var
LNRr338/17.4LONE ROCK VOR/DME112.8000E
DLLr269/22.7DELLS VORTAC117.0003E

 
NDB name  Hdg/Dist  Freq  Var  ID
MCCOY145/27.341200ECMY -.-. -- -.--

Airport Services

Runway Information

Runway 18/36

Dimensions: 1300 x 50 ft. / 396 x 15 m
Surface: turf
RUNWAY 18  RUNWAY 36
Traffic pattern: leftleft

Airport Ownership and Management from official FAA records

Ownership: Privately-owned
Owner: RICHARD THOMPSON
W10341 LUMSDEN RD
ELROY, WI 53929
Phone 608-572-5505
Manager: RICHARD THOMPSON
W10341 LUMSDEN RD
ELROY, WI 53929
Phone 608-572-5505

Instrument Procedures

There are no published instrument procedures at WI54.

Some nearby airports with instrument procedures:

C35 - Reedsburg Municipal Airport (13 nm E)
93C - Richland Airport (17 nm S)
82C - Mauston-New Lisbon Union Airport (18 nm N)
KLNR - Tri-County Regional Airport (22 nm S)
KDLL - Baraboo-Wisconsin Dells Regional Airport (22 nm E)
 
Loc | Ops | Rwys | IFR | FBO | Links
Com | Nav | Svcs | Stats | Notes

AirNav Hotels Sweepstakes
 
Aerial photo
No photo
 
Airport distance calculator
Flying to Northwood Airstrip? Find the distance to fly.

From to WI54

Sunrise and sunset
Times for 27-May-2018
 Local
(UTC-5)
 Zulu
(UTC)
Morning civil twilight04:5209:52
Sunrise05:2710:27
Sunset20:3001:30
Evening civil twilight21:0402:04

Current date and time
Zulu (UTC)  28-May-2018 03:46:55
Local (UTC-5)  27-May-2018 22:46:55
 
METAR
KC35 
13nm E 
280335Z AUTO 00000KT 10SM CLR 23/17 A2990 RMK AO2 T02310173
K82C 
18nm N 
280335Z AUTO 00000KT 10SM CLR 20/18 A2990 RMK AO2 T02010182
KVOK 
21nm N 
280257Z AUTO 00000KT 10SM CLR 20/18 A2989 RMK AO2 SLP119 $
KLNR 
21nm S 
280256Z AUTO 00000KT 10SM CLR 23/19 A2988 RMK AO2 SLP108 T02280189 53020
KDLL 
22nm E 
280335Z AUTO 00000KT 10SM CLR 22/16 A2991 RMK AO2 T02180164
KY51 
27nm W 
280335Z AUTO 18004KT 10SM CLR 28/12 A2991 RMK AO1 T02750119
TAF
NOTAMs
Click for the latest NOTAMs
NOTAMs are issued by the DoD/FAA and will open in a separate window not controlled by AirNav.

 

 
 

Would you like to see your business listed on this page?

 If your business provides an interesting product or service to pilots, flight crews, aircraft, or users of the Northwood Airstrip, you should consider listing it here.  To start the listing process, click on the button below
 
Add a business
 

Other Pages about Northwood Airstrip

Update a link
 
Copyright © AirNav, LLC. All rights reserved. Privacy Policy  Contact